Regional Weather Roundup
Issued by NWS Upton, NY

Current Version | Previous Version | Graphics & Text | Print | Product List | Glossary On
Versions: 1 2 3 4 5 6 7 8 9 10 11 12 13 14 15 16 17 18 19 20 21 22 23 24 25 26 27 28 29 30 31 32 33 34 35 36 37 38 39 40 41 42 43 44 45 46 47 48 49 50
000 ASUS41 KOKX 020804 RWROKX REGIONAL WEATHER ROUNDUP NATIONAL WEATHER SERVICE NEW YORK NY 400 AM EDT SUN AUG 02 2015 NOTE: "FAIR" INDICATES FEW OR NO CLOUDS BELOW 12,000 FEET WITH NO SIGNIFICANT WEATHER AND/OR OBSTRUCTIONS TO VISIBILITY. NYZ071-072-176-178-NJZ106-104-020900- NEW YORK CITY METRO AREA CITY SKY/WX TMP DP RH WIND PRES REMARKS CENTRAL PARK CLEAR 74 55 51 CALM 29.90S LAGUARDIA APRT PTCLDY 76 57 51 NW6 29.86S KENNEDY INTL PTCLDY 76 55 48 CALM 29.88R NEWARK/LIBERTY CLEAR 72 58 61 W5 29.87S BRNX BOT. GARD N/A 70 55 60 CALM 29.89S TETERBORO CLEAR 71 56 58 CALM 29.87S $$ NYZ177-179-078>081-020900- LONG ISLAND NEW YORK CITY SKY/WX TMP DP RH WIND PRES REMARKS FARMINGDALE CLEAR 70 58 65 NW5 29.87S ISLIP CLEAR 67 59 75 CALM 29.85S SHIRLEY CLEAR 63 58 83 CALM 29.87S WESTHAMPTON CLEAR 59 55 87 CALM 29.88S MONTAUK POINT N/A 72 64 76 NW5 29.87S $$ NYZ052-065-067-020900- HUDSON VALLEY CITY SKY/WX TMP DP RH WIND PRES REMARKS WHITE PLAINS CLEAR 66 58 75 NW3 29.87F NEWBURGH NOT AVBL MONTGOMERY CLEAR 59 57 93 SW3 29.89S POUGHKEEPSIE CLEAR 60 57 89 CALM 29.87S ALBANY CLEAR 60 54 80 CALM 29.87R $$ NJZ001-105-106-008-010-013-015-019>022-104-020900- NEW JERSEY CITY SKY/WX TMP DP RH WIND PRES REMARKS NEWARK/LIBERTY CLEAR 72 58 61 W5 29.87S TETERBORO CLEAR 71 56 58 CALM 29.87S CALDWELL CLEAR 64 57 78 CALM 29.89S MORRISTOWN CLEAR 61 57 88 CALM 29.89S SOMERVILLE PTCLDY 61 58 90 CALM 29.88R SUSSEX CLEAR 57 55 93 CALM 29.90S ANDOVER N/A 58 57 97 CALM 29.91S TRENTON CLEAR 67 59 75 NW3 29.89R MILLVILLE CLEAR 65 63 93 W5 29.89S ATLANTIC CITY CLEAR 68 65 90 W3 29.88F WRIGHTSTOWN NOT AVBL TOMS RIVER N/A 61 57 88 CALM 29.88S BELMAR CLEAR 66 55 68 W5 29.88S $$ PAZ047>061-062-071-020900- EASTERN PENNSYLVANIA CITY SKY/WX TMP DP RH WIND PRES REMARKS PHILADELPHIA PTCLDY 72 59 63 NW6 29.90R ALLENTOWN CLEAR 62 57 83 CALM 29.90S SCRANTON CLEAR 59 55 87 E3 29.93R $$ CTZ002-004>006-009-010-012-RIZ004-006-007-MAZ004-011-015-020900- SOUTHERN NEW ENGLAND IN CT CITY SKY/WX TMP DP RH WIND PRES REMARKS BRADLEY INTL CLEAR 61 56 83 CALM 29.86S HARTFORD CLEAR 65 64 97 CALM 29.86S DANBURY CLEAR 59 55 87 SW3 29.89S WTRBRY/OXFORD CLEAR 61 52 72 N3 29.90S BRIDGEPORT CLEAR 69 59 70 CALM 29.86S MERIDEN CLEAR 60 57 89 CALM 29.87R NEW HAVEN CLEAR 63 59 87 CALM 29.87R CHESTER FAIR 64 57 77 CALM 29.88S GROTON CLEAR 64 61 90 CALM 29.85S WILLIMANTIC CLEAR 61 58 90 CALM 29.87S IN RI CITY SKY/WX TMP DP RH WIND PRES REMARKS PROVIDENCE CLEAR 67 60 78 W3 29.85S BLOCK ISLAND N/A 68 63 83 NW5 29.85S WESTERLY CLEAR 64 61 90 CALM 29.86S IN MA CITY SKY/WX TMP DP RH WIND PRES REMARKS BOSTON CLEAR 71 52 50 W8 29.82S WORCESTER CLEAR 63 52 67 W9 29.88R WESTFIELD CLEAR 55 54 96 S3 29.87R PROVINCETOWN CLEAR 72 57 60 W10 29.82F NANTUCKET PTCLDY 72 70 93 NW7 29.82S $$ ANZ330-335-338-340-345-350-353-355-020900- COASTAL MARINE OBSERVATIONS STATION/POSITION TIME SKY/WX TEMP WIND PRES VSBY WAVE AIR SEA DIR/SP/G HT/PER (UTC) (F) (DEG/KT/KT) (MB) (MI) (FT/S) NY HARB ENTRANCE 0650 75 77 280/ 8/ 8 1011.1 2/ 9 4S FIRE IS NOT AVBL 20S FIRE ISLAND 0650 77 76 280/ 8/ 8 1010.7 4/ 8 GREAT SOUTH BAY 0730 74 80 330/ 6/ 8 N/A 23SW MTP 0750 73 74 320/ 8/ 10 1010.5 4/ 8 HUDSON CANYON NOT AVBL KINGS POINT 0700 73 70 CALM / 1 1010.7 EXECUTION ROCKS 0700 72 310/ 2/ 2 N/A CENTRAL LI SOUND NOT AVBL EASTERN LI SOUND 0700 68 67 290/ 4/ 6 N/A ROBBINS REEF 0700 74 290/ 5/ 5 1010.4 $$ >>>>>>>>>>>>>>>>>>>>>>>>>>>> KEY <<<<<<<<<<<<<<<<<<<<<<<<<<< > < > SKY/WX - SKY CONDITION/PRESENT WEATHER < > TMP - TEMPERATURE IN FAHRENHEIT < > DP - DEWPOINT IN FAHRENHEIT < > RH - RELATIVE HUMIDITY IN PERCENT < > WIND - DIRECTION AND SPEED IN MPH < > PRES - MEAN SEA LEVEL PRESSURE IN INCHES OF HG < > WCI - WIND CHILL INDEX < > VSB - VISIBILITY IN MILES < > HX - HEAT INDEX < > TC - TEMPERATURE IN CELSIUS < > VRB - VARIABLE WIND DIRECTION < > < >>>>>>>>>>>>>>>>>>>>>>>>>>>> KEY <<<<<<<<<<<<<<<<<<<<<<<<<<<

USA.gov is the U.S. government's official web portal to all federal, state and local government web resources and services.